COSMOS 970 DEB

Satellite information

Favourite Embed

Satellite Type and Status

DEBRISIN ORBIT

Key statistics

Satellite COSMOS 970 DEB at a glance.

Uptime

17419

Days in orbit

Revolutions

≈ 13.8

Per day

Orbit

LEO

Low Earth Orbit

Inclination

65.7

Latest

Satellite identification and parameters

Extended collection of information and parameters for COSMOS 970 DEB.

Object identification

Identified? True

Debris? True

Object name: COSMOS 970 DEB

International designator: 1977-121AJ

Object number (NORAD): 10887

Object ID (CCSDS): 10887

Country: COMMONWEALTH OF INDEPENDENT STATES (CIS)

Current information (Y/N): Y

RCS size: SMALL

Orbital parameters

Period: 104.08 minutes

Inclination: 65.7424 deg

SMA: 7329.454 km

Apoapsis: 1060.997 km

Periapsis: 841.641 km

RAAN: 120.6521 deg

Eccentricy: 0.01496405

Argument of periapsis: 126.4598 deg

Mean anomaly: 235.0367 deg

Mean motion: 13.83551496 rev/day

Mean motion (dot): 0.00000352 rev/day2

B* drag term: 0.00036137065 1/REarth

Two-line elements (TLE)

Creation date: Aug. 30, 2025, 3:38 a.m.

Reference frame: TEME

Reference center: EARTH

Epoch: Aug. 29, 2025, 10:02 p.m. UTC

TLE line 0: 0 COSMOS 970 DEB

TLE line 1: 1 10887U 77121AJ 25241.91806101 .00000352 00000-0 36137-3 0 9995

TLE line 2: 2 10887 65.7424 120.6521 0149640 126.4598 235.0367 13.83551496397864

Live tracking on map

Real-time ground track for satellite COSMOS 970 DEB.

In-orbit conjunctions

A list of the most updated potential collisions computed for object COSMOS 970 DEB.

Target Orbit TCA Probability of collision Miss distance Type
CZ-6A DEB LEO 2025-08-22 18:58:52 0.0001472245 257.0 (m) DEBRIS
METEOR 2-9 LEO 2024-11-16 02:41:53 0.001728955 678.0 (m) PAYLOAD
FENGYUN 1C DEB SSO 2024-11-14 14:17:02 0.0004944383 614.0 (m) DEBRIS
CZ-6A DEB LEO 2024-11-13 01:37:48 0.0001415822 369.0 (m) DEBRIS

Associated space launch

Second generation ASAT satellite

COSMOS 970 DEB was lifted into orbit during the mission ‘Tsiklon-2 | IS-A 8’, on board a Tsiklon-2 space rocket.

The launch took place on Dec. 21, 1977, 10:35 a.m. from 90.

For more information about the launch, click the button.

Launch to space Tsiklon-2 | IS-A 8
Tsiklon-2 | IS-A 8

Agency: N/A

Status: Launch Successful

Launch date: Dec. 21, 1977, 10:35 a.m. UTC

Rocket: Tsiklon-2

Launch pad: 90

Location: Baikonur Cosmodrome, Republic of Kazakhstan

...

Latest news about this satellite

There are no fresh news available about this satellite. Check back as we update our databases every day.


Newsletter sign-up

Weekly statistics, charts and insights to help you stay on top of the space industry.